Location: Central Coast
(33.3208°S, 151.2336°E)
Time: 17:18:21
(UTC+11:00)

Vanguard 1 - Visible Passes

Search period start: 14 December 2017 00:00
Search period end: 24 December 2017 00:00
Orbit: 650 x 3833 km, 34.2° (Epoch: 13 December)

Date Brightness Start Highest point End Pass type
(mag) Time Alt. Az. Time Alt. Az. Time Alt. Az.
14 Dec 11.4 01:21:53 10° W 01:30:40 87° S 01:47:46 10° E visible
14 Dec 12.2 03:42:13 10° WSW 03:54:38 68° NNW 04:16:02 10° NE visible
14 Dec 10.4 21:05:03 10° NNW 21:09:28 32° NE 21:15:55 10° E visible
14 Dec 10.5 23:23:17 10° WNW 23:29:37 89° NNE 23:41:32 10° E visible
15 Dec 11.4 01:42:54 10° W 01:52:03 89° N 02:09:46 10° ENE visible
15 Dec 12.3 04:03:24 10° W 04:16:04 58° NNW 04:37:08 10° NE visible
15 Dec 10.1 21:25:25 10° NW 21:30:11 47° NNE 21:37:34 10° E visible
15 Dec 10.7 23:44:13 10° W 23:50:49 86° S 00:03:21 10° E visible
16 Dec 11.5 02:03:53 10° W 02:13:25 82° NNW 02:31:37 10° ENE visible
16 Dec 12.5 04:24:44 10° W 04:37:30 49° NNW 04:57:53 10° NE visible
16 Dec 9.9 21:46:03 10° WNW 21:51:01 64° NNE 21:59:07 10° ESE visible
17 Dec 10.8 00:05:11 10° W 00:12:04 84° S 00:25:14 10° E visible
17 Dec 11.6 02:24:55 10° WSW 02:34:45 73° NNW 02:53:17 10° ENE visible
17 Dec 12.7 04:46:15 10° W 04:58:56 40° NNW 05:18:11 10° NNE visible
17 Dec 9.9 22:06:50 10° WNW 22:11:59 79° NNE 22:20:39 10° E visible
18 Dec 10.9 00:26:09 10° W 00:33:19 87° S 00:47:07 10° E visible
18 Dec 11.7 02:45:59 10° W 02:56:06 63° NNW 03:14:40 10° NE visible
18 Dec 12.9 05:08:08 10° W 05:20:23 31° NW 05:37:57 10° NNE visible
18 Dec 10.0 22:27:44 10° W 22:33:03 89° S 22:42:13 10° E visible
19 Dec 10.9 00:47:07 10° W 00:54:34 87° NNW 01:08:58 10° ENE visible
19 Dec 11.9 03:07:08 10° W 03:17:27 53° NNW 03:35:44 10° NE visible
19 Dec 9.8 20:29:41 10° NW 20:33:58 45° NNE 20:39:41 10° E visible
19 Dec 10.2 22:48:41 10° W 22:54:10 84° S 23:03:51 10° E visible
20 Dec 11.0 01:08:05 10° W 01:15:49 78° NNW 01:30:43 10° ENE visible
20 Dec 12.1 03:28:26 10° W 03:38:50 43° NNW 03:56:24 10° NE visible
20 Dec 9.5 20:50:22 10° WNW 20:54:50 63° NNE 21:01:04 10° E visible
20 Dec 10.3 23:09:38 10° W 23:15:20 83° S 23:25:33 10° E visible
21 Dec 11.1 01:29:03 10° W 01:37:03 68° NNW 01:52:15 10° ENE visible
21 Dec 12.4 03:50:00 10° W 04:00:16 35° NNW 04:16:36 10° NNE visible
21 Dec 9.5 21:11:13 10° WNW 21:15:47 80° NNE 21:22:26 10° E visible
21 Dec 10.3 23:30:35 10° W 23:36:30 87° S 23:47:15 10° E visible
22 Dec 11.3 01:50:06 10° W 01:58:34 57° NNW 02:13:32 10° NE visible
22 Dec 12.7 04:11:57 10° W 04:21:44 27° NNW 04:36:12 10° NNE visible
22 Dec 9.6 21:32:08 10° W 21:36:49 87° S 21:43:49 10° E visible
22 Dec 10.4 23:51:31 10° W 23:57:38 85° NNW 23:58:46 70° ENE visible
23 Dec 12.0 02:11:15 10° W 02:22:51 40° N 02:34:28 10° NE visible
23 Dec 12.8 04:35:53 12° WNW 04:43:16 19° NNW 04:54:54 10° N visible
23 Dec 9.8 21:53:07 10° W 21:57:54 82° S 22:04:47 12° E visible
